Weather History for VDPP - October, 2013

Change the Weather History Date:

Tuesday, October 8, 2013

  Actual Average Record
Temperature  
Mean Temperature 84 °F -  
Max Temperature 91 °F 84 °F 93 °F (2011)
Min Temperature 77 °F 76 °F 74 °F (2012)
Cooling Degree Days 19    
Growing Degree Days 34 (Base 50)    
Moisture  
Dew Point 74 °F    
Average Humidity 77    
Maximum Humidity 94    
Minimum Humidity 49    
Precipitation  
Precipitation 0.00 in - - ()
Sea Level Pressure  
Sea Level Pressure 29.78 in    
Wind  
Wind Speed 4 mph ()    
Max Wind Speed 16 mph    
Max Gust Speed -    
Visibility 5.1 miles    
Events Rain , Thunderstorm    
Averages and records for this station are not official NWS values.
T = Trace of Precipitation, MM = Missing Value Source: Averaged Metar Reports

Daily Weather History Graph

Daily Weather History Graph

Search for Another Location

Airport or City:

Trip Planner

Search our weather history database for the weather conditions in past years. The results will help you decide how hot, cold, wet, or windy it might be!

Date:

Astronomy

Oct. 08, 2013 Rise Set
Actual Time 5:49 AM ICT 5:46 PM ICT
Civil Twilight 5:28 AM ICT 6:07 PM ICT
Nautical Twilight 5:03 AM ICT 6:32 PM ICT
Astronomical Twilight 4:39 AM ICT 6:56 PM ICT
Moon 8:35 AM ICT (10/8) 8:30 PM ICT (10/8)
Length of Visible Light 12h 39m
Length of Day
11h 56m
Waxing Crescent, 12% of the Moon is Illuminated
Oct 8
Waxing Crescent
Oct 12
First Quarter
Oct 19
Full
Oct 27
Last Quarter
Nov 3
New

Hourly Weather History & Observations

Time (ICT) Temp. Heat Index Dew Point Humidity Pressure Visibility Wind Dir Wind Speed Gust Speed Precip Events Conditions
12:00 AM 78.8 °F - 75.2 °F 89% 29.80 in 6.2 mi SE 4.6 mph - N/A   Mostly Cloudy
12:30 AM 78.8 °F - 75.2 °F 89% 29.80 in 6.2 mi ESE 4.6 mph - N/A   Mostly Cloudy
1:00 AM 78.8 °F - 75.2 °F 89% 29.80 in 6.2 mi ESE 2.3 mph - N/A   Mostly Cloudy
7:00 AM 78.8 °F - 75.2 °F 89% 29.80 in 6.2 mi SW 3.5 mph - N/A   Scattered Clouds
7:30 AM 80.6 °F 86.2 °F 75.2 °F 84% 29.83 in 6.2 mi NNW 3.5 mph - N/A   Scattered Clouds
8:00 AM 82.4 °F 89.5 °F 75.2 °F 79% 29.83 in 6.2 mi NNE 4.6 mph - N/A   Scattered Clouds
8:30 AM 84.2 °F 92.3 °F 75.2 °F 74% 29.83 in 6.2 mi SSE 1.2 mph - N/A   Scattered Clouds
9:00 AM 84.2 °F 89.6 °F 71.6 °F 66% 29.83 in 6.2 mi SSE 5.8 mph - N/A   Scattered Clouds
9:30 AM 86.0 °F 93.4 °F 73.4 °F 66% 29.83 in 6.2 mi SW 2.3 mph - N/A   Scattered Clouds
10:00 AM 86.0 °F 91.8 °F 71.6 °F 62% 29.83 in 6.2 mi WSW 6.9 mph - N/A   Scattered Clouds
10:30 AM 86.0 °F 91.8 °F 71.6 °F 62% 29.83 in 6.2 mi SW 6.9 mph - N/A   Scattered Clouds
11:00 AM 86.0 °F 91.8 °F 71.6 °F 62% 29.80 in 6.2 mi West 2.3 mph - N/A   Partly Cloudy
11:30 AM 87.8 °F 93.8 °F 71.6 °F 58% 29.80 in 6.2 mi South 3.5 mph - N/A   Partly Cloudy
12:00 PM 87.8 °F 93.8 °F 71.6 °F 58% 29.77 in 6.2 mi WNW 6.9 mph - N/A   Partly Cloudy
12:30 PM 89.6 °F 96.2 °F 71.6 °F 55% 29.77 in 6.2 mi SSW 3.5 mph - N/A   Partly Cloudy
1:00 PM 89.6 °F 96.2 °F 71.6 °F 55% 29.74 in 6.2 mi ESE 3.5 mph - N/A   Partly Cloudy
1:30 PM 91.4 °F 96.8 °F 69.8 °F 49% 29.71 in 6.2 mi South 3.5 mph - N/A   Partly Cloudy
2:00 PM 91.4 °F 96.8 °F 69.8 °F 49% 29.71 in 6.2 mi SW 8.1 mph - N/A   Partly Cloudy
2:30 PM 89.6 °F 99.8 °F 75.2 °F 62% 29.71 in 6.2 mi NE 8.1 mph - N/A   Partly Cloudy
3:00 PM 87.8 °F 95.6 °F 73.4 °F 62% 29.71 in 6.2 mi ENE 8.1 mph - N/A   Scattered Clouds
3:30 PM 86.0 °F 93.4 °F 73.4 °F 66% 29.68 in 6.2 mi East 9.2 mph - N/A Rain Light Rain
4:00 PM 80.6 °F 86.2 °F 75.2 °F 84% 29.71 in 1.9 mi ENE 16.1 mph - N/A Rain Rain
4:30 PM 78.8 °F - 75.2 °F 89% 29.74 in 0.5 mi NE 8.1 mph - N/A Rain , Thunderstorm Heavy Thunderstorms and Rain
5:00 PM 77.0 °F - 75.2 °F 94% 29.74 in 0.6 mi NNW 10.4 mph - N/A Rain , Thunderstorm Heavy Thunderstorms and Rain
5:30 PM 77.0 °F - 75.2 °F 94% 29.74 in 3.7 mi NW 3.5 mph - N/A Rain , Thunderstorm Thunderstorms and Rain
6:00 PM 77.0 °F - 75.2 °F 94% 29.74 in 3.7 mi SW 4.6 mph - N/A Rain , Thunderstorm Thunderstorms and Rain
6:30 PM 78.8 °F - 75.2 °F 89% 29.77 in 5.0 mi SW 5.8 mph - N/A Rain , Thunderstorm Light Thunderstorms and Rain
7:00 PM 78.8 °F - 75.2 °F 89% 29.77 in 5.0 mi SSW 2.3 mph - N/A Rain , Thunderstorm Light Thunderstorms and Rain
7:30 PM 78.8 °F - 75.2 °F 89% 29.80 in 5.0 mi SSW 6.9 mph - N/A Rain , Thunderstorm Light Thunderstorms and Rain
8:00 PM 78.8 °F - 75.2 °F 89% 29.80 in 5.0 mi SSW 4.6 mph - N/A Rain , Thunderstorm Light Thunderstorms and Rain
8:30 PM 78.8 °F - 75.2 °F 89% 29.83 in 5.0 mi SSW 3.5 mph - N/A Rain , Thunderstorm Light Thunderstorms and Rain
9:00 PM 78.8 °F - 75.2 °F 89% 29.83 in 4.3 mi WSW 2.3 mph - N/A Rain Rain
9:30 PM 77.0 °F - 73.4 °F 89% 29.83 in 3.7 mi West 6.9 mph - N/A Rain Rain
10:00 PM 77.0 °F - 73.4 °F 89% 29.83 in 3.7 mi WSW 3.5 mph - N/A Rain , Thunderstorm Light Thunderstorms and Rain
10:30 PM 77.0 °F - 75.2 °F 94% 29.83 in 3.1 mi West 2.3 mph - N/A Rain , Thunderstorm Light Thunderstorms and Rain
11:00 PM 78.8 °F - 75.2 °F 89% 29.83 in 5.0 mi SSE 2.3 mph - N/A Rain Light Rain
11:30 PM 78.8 °F - 75.2 °F 89% 29.83 in 5.0 mi SSE 2.3 mph - N/A   Mostly Cloudy